Weather History for Beckley, WV

Change the Weather History Date:

Sunday, October 14, 2012

  Actual Average Record
Temperature  
Mean Temperature 62 °F 54 °F  
Max Temperature 74 °F 64 °F 82 °F (1954)
Min Temperature 49 °F 44 °F 21 °F (1934)
Degree Days  
Heating Degree Days 3 12  
Month to date heating degree days 167 137  
Since 1 July heating degree days 285 271  
Cooling Degree Days 0 0  
Month to date cooling degree days 2 2  
Year to date cooling degree days 760 552  
Growing Degree Days 10 (Base 50)    
Moisture  
Dew Point 47 °F    
Average Humidity 59    
Maximum Humidity 74    
Minimum Humidity 44    
Precipitation  
Precipitation T in 0.08 in 1.56 in (1944)
Month to date precipitation 1.26 1.14  
Year to date precipitation 37.27 33.81  
Snow  
Snow 0.00 in - - ()
Month to date snowfall 0.0  
Since 1 September snowfall 0.0  
Snow Depth 0.00 in    
Sea Level Pressure  
Sea Level Pressure 30.08 in    
Wind  
Wind Speed 9 mph (SSE)    
Max Wind Speed 21 mph    
Max Gust Speed 26 mph    
Visibility 10 miles    
Events      
T = Trace of Precipitation, MM = Missing Value Source: NWS Daily Summary

Daily Weather History Graph

Daily Weather History Graph

Search for Another Location

Airport:

Trip Planner

Search our weather history database for the weather conditions in past years. The results will help you decide how hot, cold, wet, or windy it might be!

Date:

Astronomy

Oct. 14, 2012 Rise Set
Actual Time 7:32 AM EDT 6:47 PM EDT
Civil Twilight 7:05 AM EDT 7:14 PM EDT
Nautical Twilight 6:35 AM EDT 7:44 PM EDT
Astronomical Twilight 6:05 AM EDT 8:14 PM EDT
Moon 6:30 AM EDT (10/14) 6:06 PM EDT (10/14)
Length of Visible Light 12h 08m
Length of Day
11h 15m
Waning Crescent, 1% of the Moon is Illuminated
Oct 14
Waning Crescent
Oct 15
New
Oct 21
First Quarter
Oct 29
Full
Nov 6
Last Quarter

Hourly Weather History & Observations

Time (EDT) Temp. Dew Point Humidity Pressure Visibility Wind Dir Wind Speed Gust Speed Precip Events Conditions
12:51 AM 51.8 °F 42.8 °F 71% 30.22 in 10.0 mi SSE 10.4 mph - N/A   Clear
1:51 AM 52.0 °F 42.1 °F 69% 30.19 in 10.0 mi SSE 12.7 mph 20.7 mph N/A   Clear
2:51 AM 51.1 °F 42.1 °F 71% 30.17 in 10.0 mi SSE 11.5 mph - N/A   Clear
3:51 AM 51.1 °F 42.1 °F 71% 30.15 in 10.0 mi SE 8.1 mph - N/A   Clear
4:51 AM 51.1 °F 42.1 °F 71% 30.16 in 10.0 mi SSE 5.8 mph - N/A   Clear
5:51 AM 50.0 °F 42.1 °F 74% 30.17 in 10.0 mi SE 8.1 mph - N/A   Clear
6:51 AM 50.0 °F 42.1 °F 74% 30.18 in 10.0 mi SE 6.9 mph - N/A   Partly Cloudy
7:51 AM 50.0 °F 42.1 °F 74% 30.20 in 10.0 mi SE 8.1 mph - N/A   Clear
8:51 AM 53.1 °F 44.1 °F 71% 30.20 in 10.0 mi SE 9.2 mph - N/A   Clear
9:51 AM 57.9 °F 46.0 °F 65% 30.17 in 10.0 mi ESE 8.1 mph - N/A   Clear
10:51 AM 64.0 °F 48.0 °F 56% 30.15 in 10.0 mi SE 6.9 mph - N/A   Partly Cloudy
11:51 AM 70.0 °F 50.0 °F 49% 30.14 in 10.0 mi SW 10.4 mph - N/A   Mostly Cloudy
12:51 PM 69.1 °F 48.9 °F 49% 30.11 in 10.0 mi WSW 9.2 mph 17.3 mph N/A   Clear
1:51 PM 72.0 °F 50.0 °F 46% 30.06 in 10.0 mi SW 11.5 mph 20.7 mph N/A   Clear
2:51 PM 72.0 °F 51.1 °F 48% 30.04 in 10.0 mi SSW 8.1 mph - N/A   Clear
3:51 PM 73.9 °F 50.0 °F 43% 30.00 in 10.0 mi SW 11.5 mph 25.3 mph N/A   Clear
4:51 PM 71.1 °F 50.0 °F 47% 30.00 in 10.0 mi SW 10.4 mph - N/A   Clear
5:51 PM 69.1 °F 51.1 °F 53% 29.98 in 10.0 mi South 10.4 mph - N/A   Clear
6:51 PM 66.9 °F 50.0 °F 54% 29.96 in 10.0 mi South 11.5 mph 17.3 mph N/A   Clear
7:51 PM 64.0 °F 51.1 °F 63% 29.95 in 10.0 mi South 10.4 mph - N/A   Clear
8:51 PM 62.1 °F 52.0 °F 70% 29.95 in 10.0 mi South 12.7 mph - N/A   Clear
9:51 PM 62.1 °F 52.0 °F 70% 29.94 in 10.0 mi SSE 10.4 mph - N/A   Scattered Clouds
10:51 PM 62.1 °F 52.0 °F 70% 29.91 in 10.0 mi SSE 9.2 mph - 0.00 in   Overcast
11:51 PM 62.1 °F 53.1 °F 72% 29.89 in 10.0 mi South 8.1 mph - 0.00 in   Overcast